Year,Month,Day,Hour,Minute,Value (Times are PST for temperature in C)
2010,03,20,00,00,5.10
2010,03,20,00,01,5.20
2010,03,20,00,02,5.20
2010,03,20,00,03,5.20
2010,03,20,00,04,5.30
2010,03,20,00,05,5.30
2010,03,20,00,06,5.30
2010,03,20,00,07,5.30
2010,03,20,00,08,5.40
2010,03,20,00,09,5.40
2010,03,20,00,10,5.40
2010,03,20,00,11,5.50
2010,03,20,00,12,5.50
2010,03,20,00,13,5.60
2010,03,20,00,14,5.60
2010,03,20,00,15,5.70
2010,03,20,00,16,5.80
2010,03,20,00,17,5.80
2010,03,20,00,18,5.80
2010,03,20,00,19,5.90
2010,03,20,00,20,5.90
2010,03,20,00,21,5.90
2010,03,20,00,22,5.90
2010,03,20,00,23,5.90
2010,03,20,00,24,5.90
2010,03,20,00,25,5.90
2010,03,20,00,26,5.90
2010,03,20,00,27,5.90
2010,03,20,00,28,5.90
2010,03,20,00,29,5.90
2010,03,20,00,30,5.90
2010,03,20,00,31,5.90
2010,03,20,00,32,5.90
2010,03,20,00,33,5.90
2010,03,20,00,34,5.90
2010,03,20,00,35,5.80
2010,03,20,00,36,5.80
2010,03,20,00,37,5.80
2010,03,20,00,38,5.80
2010,03,20,00,39,5.70
2010,03,20,00,40,5.70
2010,03,20,00,41,5.70
2010,03,20,00,42,5.60
2010,03,20,00,43,5.60
2010,03,20,00,44,5.60
2010,03,20,00,45,5.60
2010,03,20,00,46,5.60
2010,03,20,00,47,5.50
2010,03,20,00,48,5.50
2010,03,20,00,49,5.50
2010,03,20,00,50,5.60
2010,03,20,00,51,5.70
2010,03,20,00,52,5.70
2010,03,20,00,53,5.80
2010,03,20,00,54,5.80
2010,03,20,00,55,5.90
2010,03,20,00,56,5.90
2010,03,20,00,57,6.00
2010,03,20,00,58,6.00
2010,03,20,00,59,6.00
2010,03,20,01,00,6.00
2010,03,20,01,01,6.10
2010,03,20,01,02,6.10
2010,03,20,01,03,6.10
2010,03,20,01,04,6.00
2010,03,20,01,05,6.00
2010,03,20,01,06,6.00
2010,03,20,01,07,6.00
2010,03,20,01,08,6.00
2010,03,20,01,09,6.00
2010,03,20,01,10,6.00
2010,03,20,01,11,6.00
2010,03,20,01,12,6.00
2010,03,20,01,13,6.00
2010,03,20,01,14,6.00
2010,03,20,01,15,6.00
2010,03,20,01,16,6.00
2010,03,20,01,17,6.00
2010,03,20,01,18,6.00
2010,03,20,01,19,6.00
2010,03,20,01,20,5.90
2010,03,20,01,21,5.90
2010,03,20,01,22,5.90
2010,03,20,01,23,5.90
2010,03,20,01,24,5.80
2010,03,20,01,25,5.80
2010,03,20,01,26,5.80
2010,03,20,01,27,5.70
2010,03,20,01,28,5.70
2010,03,20,01,29,5.70
2010,03,20,01,30,5.70
2010,03,20,01,31,5.60
2010,03,20,01,32,5.60
2010,03,20,01,33,5.60
2010,03,20,01,34,5.60
2010,03,20,01,35,5.60
2010,03,20,01,36,5.60
2010,03,20,01,37,5.60
2010,03,20,01,38,5.50
2010,03,20,01,39,5.50
2010,03,20,01,40,5.50
2010,03,20,01,41,5.40
2010,03,20,01,42,5.40
2010,03,20,01,43,5.40
2010,03,20,01,44,5.30
2010,03,20,01,45,5.30
2010,03,20,01,46,5.20
2010,03,20,01,47,5.00
2010,03,20,01,48,4.90
2010,03,20,01,49,4.80
2010,03,20,01,50,4.60
2010,03,20,01,51,4.50
2010,03,20,01,52,4.40
2010,03,20,01,53,4.30
2010,03,20,01,54,4.30
2010,03,20,01,55,4.20
2010,03,20,01,56,4.20
2010,03,20,01,57,4.10
2010,03,20,01,58,4.10
2010,03,20,01,59,4.10
2010,03,20,02,00,4.10
2010,03,20,02,01,4.10
2010,03,20,02,02,4.10
2010,03,20,02,03,4.10
2010,03,20,02,04,4.10
2010,03,20,02,05,4.10
2010,03,20,02,06,4.20
2010,03,20,02,07,4.20
2010,03,20,02,08,4.20
2010,03,20,02,09,4.30
2010,03,20,02,10,4.30
2010,03,20,02,11,4.30
2010,03,20,02,12,4.30
2010,03,20,02,13,4.30
2010,03,20,02,14,4.30
2010,03,20,02,15,4.30
2010,03,20,02,16,4.30
2010,03,20,02,17,4.30
2010,03,20,02,18,4.30
2010,03,20,02,19,4.30
2010,03,20,02,20,4.30
2010,03,20,02,21,4.40
2010,03,20,02,22,4.40
2010,03,20,02,23,4.50
2010,03,20,02,24,4.50
2010,03,20,02,25,4.60
2010,03,20,02,26,4.60
2010,03,20,02,27,4.60
2010,03,20,02,28,4.60
2010,03,20,02,29,4.60
2010,03,20,02,30,4.70
2010,03,20,02,31,4.70
2010,03,20,02,32,4.70
2010,03,20,02,33,4.70
2010,03,20,02,34,4.70
2010,03,20,02,35,4.70
2010,03,20,02,36,4.70
2010,03,20,02,37,4.70
2010,03,20,02,38,4.70
2010,03,20,02,39,4.70
2010,03,20,02,40,4.80
2010,03,20,02,41,4.80
2010,03,20,02,42,4.80
2010,03,20,02,43,4.80
2010,03,20,02,44,4.80
2010,03,20,02,45,4.90
2010,03,20,02,46,4.90
2010,03,20,02,47,4.90
2010,03,20,02,48,4.90
2010,03,20,02,49,4.90
2010,03,20,02,50,4.90
2010,03,20,02,51,4.90
2010,03,20,02,52,4.90
2010,03,20,02,53,5.00
2010,03,20,02,54,5.00
2010,03,20,02,55,5.10
2010,03,20,02,56,5.10
2010,03,20,02,57,5.10
2010,03,20,02,58,5.10
2010,03,20,02,59,5.10
2010,03,20,03,00,5.10
2010,03,20,03,01,5.10
2010,03,20,03,02,5.10
2010,03,20,03,03,5.00
2010,03,20,03,04,5.00
2010,03,20,03,05,5.10
2010,03,20,03,06,5.10
2010,03,20,03,07,5.10
2010,03,20,03,08,5.10
2010,03,20,03,09,5.10
2010,03,20,03,10,5.10
2010,03,20,03,11,5.00
2010,03,20,03,12,5.00
2010,03,20,03,13,5.00
2010,03,20,03,14,5.00
2010,03,20,03,15,4.90
2010,03,20,03,16,4.90
2010,03,20,03,17,4.90
2010,03,20,03,18,4.90
2010,03,20,03,19,4.90
2010,03,20,03,20,4.90
2010,03,20,03,21,4.90
2010,03,20,03,22,4.90
2010,03,20,03,23,4.90
2010,03,20,03,24,4.80
2010,03,20,03,25,4.80
2010,03,20,03,26,4.80
2010,03,20,03,27,4.70
2010,03,20,03,28,4.70
2010,03,20,03,29,4.60
2010,03,20,03,30,4.60
2010,03,20,03,31,4.60
2010,03,20,03,32,4.60
2010,03,20,03,33,4.60
2010,03,20,03,34,4.60
2010,03,20,03,35,4.60
2010,03,20,03,36,4.60
2010,03,20,03,37,4.60
2010,03,20,03,38,4.70
2010,03,20,03,39,4.70
2010,03,20,03,40,4.80
2010,03,20,03,41,4.80
2010,03,20,03,42,4.90
2010,03,20,03,43,4.90
2010,03,20,03,44,5.00
2010,03,20,03,45,5.00
2010,03,20,03,46,5.00
2010,03,20,03,47,5.00
2010,03,20,03,48,5.00
2010,03,20,03,49,5.00
2010,03,20,03,50,5.00
2010,03,20,03,51,4.90
2010,03,20,03,52,4.90
2010,03,20,03,53,4.90
2010,03,20,03,54,4.90
2010,03,20,03,55,4.90
2010,03,20,03,56,4.80
2010,03,20,03,57,4.80
2010,03,20,03,58,4.80
2010,03,20,03,59,4.80
2010,03,20,04,00,4.80
2010,03,20,04,01,4.90
2010,03,20,04,02,4.90
2010,03,20,04,03,4.90
2010,03,20,04,04,4.90
2010,03,20,04,05,4.90
2010,03,20,04,06,4.90
2010,03,20,04,07,4.90
2010,03,20,04,08,4.90
2010,03,20,04,09,4.80
2010,03,20,04,10,4.80
2010,03,20,04,11,4.80
2010,03,20,04,12,4.80
2010,03,20,04,13,4.70
2010,03,20,04,14,4.70
2010,03,20,04,15,4.70
2010,03,20,04,16,4.70
2010,03,20,04,17,4.70
2010,03,20,04,18,4.70
2010,03,20,04,19,4.70
2010,03,20,04,20,4.70
2010,03,20,04,21,4.70
2010,03,20,04,22,4.70
2010,03,20,04,23,4.70
2010,03,20,04,24,4.60
2010,03,20,04,25,4.60
2010,03,20,04,26,4.60
2010,03,20,04,27,4.60
2010,03,20,04,28,4.60
2010,03,20,04,29,4.50
2010,03,20,04,30,4.50
2010,03,20,04,31,4.50
2010,03,20,04,32,4.40
2010,03,20,04,33,4.40
2010,03,20,04,34,4.40
2010,03,20,04,35,4.40
2010,03,20,04,36,4.30
2010,03,20,04,37,4.30
2010,03,20,04,38,4.30
2010,03,20,04,39,4.30
2010,03,20,04,40,4.30
2010,03,20,04,41,4.30
2010,03,20,04,42,4.30
2010,03,20,04,43,4.30
2010,03,20,04,44,4.30
2010,03,20,04,45,4.30
2010,03,20,04,46,4.40
2010,03,20,04,47,4.40
2010,03,20,04,48,4.30
2010,03,20,04,49,4.30
2010,03,20,04,50,4.30
2010,03,20,04,51,4.30
2010,03,20,04,52,4.30
2010,03,20,04,53,4.30
2010,03,20,04,54,4.30
2010,03,20,04,55,4.30
2010,03,20,04,56,4.30
2010,03,20,04,57,4.30
2010,03,20,04,58,4.30
2010,03,20,04,59,4.30
2010,03,20,05,00,4.30
2010,03,20,05,01,4.30
2010,03,20,05,02,4.30
2010,03,20,05,03,4.30
2010,03,20,05,04,4.20
2010,03,20,05,05,4.20
2010,03,20,05,06,4.20
2010,03,20,05,07,4.20
2010,03,20,05,08,4.20
2010,03,20,05,09,4.20
2010,03,20,05,10,4.20
2010,03,20,05,11,4.20
2010,03,20,05,12,4.20
2010,03,20,05,13,4.30
2010,03,20,05,14,4.30
2010,03,20,05,15,4.30
2010,03,20,05,16,4.30
2010,03,20,05,17,4.30
2010,03,20,05,18,4.30
2010,03,20,05,19,4.30
2010,03,20,05,20,4.30
2010,03,20,05,21,4.40
2010,03,20,05,22,4.40
2010,03,20,05,23,4.40
2010,03,20,05,24,4.40
2010,03,20,05,25,4.40
2010,03,20,05,26,4.40
2010,03,20,05,27,4.40
2010,03,20,05,28,4.40
2010,03,20,05,29,4.30
2010,03,20,05,30,4.40
2010,03,20,05,31,4.30
2010,03,20,05,32,4.30
2010,03,20,05,33,4.30
2010,03,20,05,34,4.30
2010,03,20,05,35,4.30
2010,03,20,05,36,4.30
2010,03,20,05,37,4.30
2010,03,20,05,38,4.30
2010,03,20,05,39,4.30
2010,03,20,05,40,4.30
2010,03,20,05,41,4.30
2010,03,20,05,42,4.30
2010,03,20,05,43,4.30
2010,03,20,05,44,4.30
2010,03,20,05,45,4.30
2010,03,20,05,46,4.30
2010,03,20,05,47,4.30
2010,03,20,05,48,4.20
2010,03,20,05,49,4.20
2010,03,20,05,50,4.20
2010,03,20,05,51,4.20
2010,03,20,05,52,4.20
2010,03,20,05,53,4.20
2010,03,20,05,54,4.20
2010,03,20,05,55,4.20
2010,03,20,05,56,4.20
2010,03,20,05,57,4.20
2010,03,20,05,58,4.20
2010,03,20,05,59,4.20
2010,03,20,06,00,4.20
2010,03,20,06,01,4.20
2010,03,20,06,02,4.20
2010,03,20,06,03,4.20
2010,03,20,06,04,4.20
2010,03,20,06,05,4.20
2010,03,20,06,06,4.20
2010,03,20,06,07,4.10
2010,03,20,06,08,4.10
2010,03,20,06,09,4.10
2010,03,20,06,10,4.10
2010,03,20,06,11,4.00
2010,03,20,06,12,4.00
2010,03,20,06,13,4.00
2010,03,20,06,14,4.00
2010,03,20,06,15,4.00
2010,03,20,06,16,4.00
2010,03,20,06,17,4.00
2010,03,20,06,18,4.00
2010,03,20,06,19,4.00
2010,03,20,06,20,4.10
2010,03,20,06,21,4.10
2010,03,20,06,22,4.10
2010,03,20,06,23,4.10
2010,03,20,06,24,4.10
2010,03,20,06,25,4.10
2010,03,20,06,26,4.10
2010,03,20,06,27,4.20
2010,03,20,06,28,4.20
2010,03,20,06,29,4.20
2010,03,20,06,30,4.20
2010,03,20,06,31,4.20
2010,03,20,06,32,4.20
2010,03,20,06,33,4.20
2010,03,20,06,34,4.20
2010,03,20,06,35,4.20
2010,03,20,06,36,4.30
2010,03,20,06,37,4.30
2010,03,20,06,38,4.30
2010,03,20,06,39,4.30
2010,03,20,06,40,4.30
2010,03,20,06,41,4.30
2010,03,20,06,42,4.40
2010,03,20,06,43,4.40
2010,03,20,06,44,4.40
2010,03,20,06,45,4.40
2010,03,20,06,46,4.50
2010,03,20,06,47,4.50
2010,03,20,06,48,4.60
2010,03,20,06,49,4.60
2010,03,20,06,50,4.60
2010,03,20,06,51,4.70
2010,03,20,06,52,4.70
2010,03,20,06,53,4.70
2010,03,20,06,54,4.70
2010,03,20,06,55,4.70
2010,03,20,06,56,4.70
2010,03,20,06,57,4.60
2010,03,20,06,58,4.60
2010,03,20,06,59,4.60
2010,03,20,07,00,4.60
2010,03,20,07,01,4.60
2010,03,20,07,02,4.60
2010,03,20,07,03,4.60
2010,03,20,07,04,4.60
2010,03,20,07,05,4.60
2010,03,20,07,06,4.60
2010,03,20,07,07,4.70
2010,03,20,07,08,4.70
2010,03,20,07,09,4.70
2010,03,20,07,10,4.70
2010,03,20,07,11,4.80
2010,03,20,07,12,4.80
2010,03,20,07,13,4.80
2010,03,20,07,14,4.80
2010,03,20,07,15,4.80
2010,03,20,07,16,4.80
2010,03,20,07,17,4.70
2010,03,20,07,18,4.60
2010,03,20,07,19,4.50
2010,03,20,07,20,4.40
2010,03,20,07,21,4.40
2010,03,20,07,22,4.30
2010,03,20,07,23,4.30
2010,03,20,07,24,4.20
2010,03,20,07,25,4.20
2010,03,20,07,26,4.20
2010,03,20,07,27,4.20
2010,03,20,07,28,4.10
2010,03,20,07,29,4.20
2010,03,20,07,30,4.20
2010,03,20,07,31,4.20
2010,03,20,07,32,4.20
2010,03,20,07,33,4.20
2010,03,20,07,34,4.20
2010,03,20,07,35,4.20
2010,03,20,07,36,4.20
2010,03,20,07,37,4.20
2010,03,20,07,38,4.10
2010,03,20,07,39,4.10
2010,03,20,07,40,4.00
2010,03,20,07,41,3.90
2010,03,20,07,42,3.80
2010,03,20,07,43,3.70
2010,03,20,07,44,3.60
2010,03,20,07,45,3.50
2010,03,20,07,46,3.40
2010,03,20,07,47,3.40
2010,03,20,07,48,3.40
2010,03,20,07,49,3.40
2010,03,20,07,50,3.40
2010,03,20,07,51,3.40
2010,03,20,07,52,3.30
2010,03,20,07,53,3.20
2010,03,20,07,54,3.10
2010,03,20,07,55,3.10
2010,03,20,07,56,3.00
2010,03,20,07,57,3.00
2010,03,20,07,58,3.00
2010,03,20,07,59,3.00
2010,03,20,08,00,3.00
2010,03,20,08,01,3.10
2010,03,20,08,02,3.10
2010,03,20,08,03,3.20
2010,03,20,08,04,3.20
2010,03,20,08,05,3.30
2010,03,20,08,06,3.30
2010,03,20,08,07,3.40
2010,03,20,08,08,3.40
2010,03,20,08,09,3.40
2010,03,20,08,10,3.40
2010,03,20,08,11,3.40
2010,03,20,08,12,3.40
2010,03,20,08,13,3.40
2010,03,20,08,14,3.30
2010,03,20,08,15,3.30
2010,03,20,08,16,3.30
2010,03,20,08,17,3.30
2010,03,20,08,18,3.30
2010,03,20,08,19,3.30
2010,03,20,08,20,3.30
2010,03,20,08,21,3.30
2010,03,20,08,22,3.30
2010,03,20,08,23,3.30
2010,03,20,08,24,3.30
2010,03,20,08,25,3.30
2010,03,20,08,26,3.30
2010,03,20,08,27,3.30
2010,03,20,08,28,3.30
2010,03,20,08,29,3.30
2010,03,20,08,30,3.30
2010,03,20,08,31,3.30
2010,03,20,08,32,3.30
2010,03,20,08,33,3.30
2010,03,20,08,34,3.30
2010,03,20,08,35,3.30
2010,03,20,08,36,3.40
2010,03,20,08,37,3.50
2010,03,20,08,38,3.50
2010,03,20,08,39,3.60
2010,03,20,08,40,3.60
2010,03,20,08,41,3.60
2010,03,20,08,42,3.60
2010,03,20,08,43,3.60
2010,03,20,08,44,3.60
2010,03,20,08,45,3.60
2010,03,20,08,46,3.60
2010,03,20,08,47,3.60
2010,03,20,08,48,3.50
2010,03,20,08,49,3.50
2010,03,20,08,50,3.50
2010,03,20,08,51,3.40
2010,03,20,08,52,3.40
2010,03,20,08,53,3.50
2010,03,20,08,54,3.50
2010,03,20,08,55,3.50
2010,03,20,08,56,3.60
2010,03,20,08,57,3.60
2010,03,20,08,58,3.60
2010,03,20,08,59,3.70
2010,03,20,09,00,3.70
2010,03,20,09,01,3.70
2010,03,20,09,02,3.80
2010,03,20,09,03,3.90
2010,03,20,09,04,3.90
2010,03,20,09,05,4.00
2010,03,20,09,06,4.10
2010,03,20,09,07,4.10
2010,03,20,09,08,4.20
2010,03,20,09,09,4.30
2010,03,20,09,10,4.30
2010,03,20,09,11,4.40
2010,03,20,09,12,4.50
2010,03,20,09,13,4.50
2010,03,20,09,14,4.60
2010,03,20,09,15,4.70
2010,03,20,09,16,4.80
2010,03,20,09,17,4.80
2010,03,20,09,18,4.90
2010,03,20,09,19,5.00
2010,03,20,09,20,5.10
2010,03,20,09,21,5.10
2010,03,20,09,22,5.20
2010,03,20,09,23,5.30
2010,03,20,09,24,5.30
2010,03,20,09,25,5.30
2010,03,20,09,26,5.40
2010,03,20,09,27,5.40
2010,03,20,09,28,5.40
2010,03,20,09,29,5.50
2010,03,20,09,30,5.50
2010,03,20,09,31,5.50
2010,03,20,09,32,5.60
2010,03,20,09,33,5.60
2010,03,20,09,34,5.60
2010,03,20,09,35,5.70
2010,03,20,09,36,5.70
2010,03,20,09,37,5.80
2010,03,20,09,38,5.90
2010,03,20,09,39,6.00
2010,03,20,09,40,6.10
2010,03,20,09,41,6.20
2010,03,20,09,42,6.30
2010,03,20,09,43,6.40
2010,03,20,09,44,6.50
2010,03,20,09,45,6.60
2010,03,20,09,46,6.70
2010,03,20,09,47,6.70
2010,03,20,09,48,6.80
2010,03,20,09,49,6.80
2010,03,20,09,50,6.90
2010,03,20,09,51,6.90
2010,03,20,09,52,6.90
2010,03,20,09,53,7.00
2010,03,20,09,54,7.10
2010,03,20,09,55,7.10
2010,03,20,09,56,7.20
2010,03,20,09,57,7.20
2010,03,20,09,58,7.30
2010,03,20,09,59,7.40
2010,03,20,10,00,7.50
2010,03,20,10,01,7.60
2010,03,20,10,02,7.70
2010,03,20,10,03,7.70
2010,03,20,10,04,7.80
2010,03,20,10,05,7.90
2010,03,20,10,06,8.00
2010,03,20,10,07,8.00
2010,03,20,10,08,8.10
2010,03,20,10,09,8.10
2010,03,20,10,10,8.20
2010,03,20,10,11,8.20
2010,03,20,10,12,8.30
2010,03,20,10,13,8.30
2010,03,20,10,14,8.40
2010,03,20,10,15,8.40
2010,03,20,10,16,8.50
2010,03,20,10,17,8.50
2010,03,20,10,18,8.50
2010,03,20,10,19,8.60
2010,03,20,10,20,8.60
2010,03,20,10,21,8.70
2010,03,20,10,22,8.70
2010,03,20,10,23,8.70
2010,03,20,10,24,8.80
2010,03,20,10,25,8.80
2010,03,20,10,26,8.80
2010,03,20,10,27,8.80
2010,03,20,10,28,8.80
2010,03,20,10,29,8.80
2010,03,20,10,30,8.90
2010,03,20,10,31,8.90
2010,03,20,10,32,8.80
2010,03,20,10,33,8.80
2010,03,20,10,34,8.70
2010,03,20,10,35,8.70
2010,03,20,10,36,8.60
2010,03,20,10,37,8.60
2010,03,20,10,38,8.60
2010,03,20,10,39,8.50
2010,03,20,10,40,8.50
2010,03,20,10,41,8.40
2010,03,20,10,42,8.40
2010,03,20,10,43,8.50
2010,03,20,10,44,8.50
2010,03,20,10,45,8.50
2010,03,20,10,46,8.60
2010,03,20,10,47,8.60
2010,03,20,10,48,8.60
2010,03,20,10,49,8.60
2010,03,20,10,50,8.60
2010,03,20,10,51,8.60
2010,03,20,10,52,8.60
2010,03,20,10,53,8.60
2010,03,20,10,54,8.60
2010,03,20,10,55,8.60
2010,03,20,10,56,8.50
2010,03,20,10,57,8.50
2010,03,20,10,58,8.40
2010,03,20,10,59,8.30
2010,03,20,11,00,8.30
2010,03,20,11,01,8.30
2010,03,20,11,02,8.30
2010,03,20,11,03,8.30
2010,03,20,11,04,8.30
2010,03,20,11,05,8.30
2010,03,20,11,06,8.30
2010,03,20,11,07,8.30
2010,03,20,11,08,8.40
2010,03,20,11,09,8.50
2010,03,20,11,10,8.50
2010,03,20,11,11,8.60
2010,03,20,11,12,8.70
2010,03,20,11,13,8.80
2010,03,20,11,14,8.80
2010,03,20,11,15,8.80
2010,03,20,11,16,8.80
2010,03,20,11,17,8.90
2010,03,20,11,18,8.90
2010,03,20,11,19,9.00
2010,03,20,11,20,9.00
2010,03,20,11,21,9.10
2010,03,20,11,22,9.10
2010,03,20,11,23,9.20
2010,03,20,11,24,9.20
2010,03,20,11,25,9.20
2010,03,20,11,26,9.30
2010,03,20,11,27,9.30
2010,03,20,11,28,9.30
2010,03,20,11,29,9.30
2010,03,20,11,30,9.30
2010,03,20,11,31,9.30
2010,03,20,11,32,9.30
2010,03,20,11,33,9.30
2010,03,20,11,34,9.30
2010,03,20,11,35,9.30
2010,03,20,11,36,9.20
2010,03,20,11,37,9.20
2010,03,20,11,38,9.10
2010,03,20,11,39,9.10
2010,03,20,11,40,9.00
2010,03,20,11,41,9.10
2010,03,20,11,42,9.10
2010,03,20,11,43,9.20
2010,03,20,11,44,9.20
2010,03,20,11,45,9.30
2010,03,20,11,46,9.40
2010,03,20,11,47,9.40
2010,03,20,11,48,9.50
2010,03,20,11,49,9.50
2010,03,20,11,50,9.60
2010,03,20,11,51,9.60
2010,03,20,11,52,9.60
2010,03,20,11,53,9.60
2010,03,20,11,54,9.70
2010,03,20,11,55,9.70
2010,03,20,11,56,9.80
2010,03,20,11,57,9.80
2010,03,20,11,58,9.90
2010,03,20,11,59,9.90
2010,03,20,12,00,10.00
2010,03,20,12,01,10.10
2010,03,20,12,02,10.10
2010,03,20,12,03,10.10
2010,03,20,12,04,10.20
2010,03,20,12,05,10.20
2010,03,20,12,06,10.30
2010,03,20,12,07,10.20
2010,03,20,12,08,10.30
2010,03,20,12,09,10.30
2010,03,20,12,10,10.30
2010,03,20,12,11,10.30
2010,03,20,12,12,10.30
2010,03,20,12,13,10.30
2010,03,20,12,14,10.40
2010,03,20,12,15,10.40
2010,03,20,12,16,10.40
2010,03,20,12,17,10.40
2010,03,20,12,18,10.40
2010,03,20,12,19,10.30
2010,03,20,12,20,10.40
2010,03,20,12,21,10.50
2010,03,20,12,22,10.60
2010,03,20,12,23,10.60
2010,03,20,12,24,10.60
2010,03,20,12,25,10.70
2010,03,20,12,26,10.60
2010,03,20,12,27,10.60
2010,03,20,12,28,10.70
2010,03,20,12,29,10.70
2010,03,20,12,30,10.70
2010,03,20,12,31,10.70
2010,03,20,12,32,10.60
2010,03,20,12,33,10.60
2010,03,20,12,34,10.60
2010,03,20,12,35,10.70
2010,03,20,12,36,10.70
2010,03,20,12,37,10.70
2010,03,20,12,38,10.70
2010,03,20,12,39,10.80
2010,03,20,12,40,10.80
2010,03,20,12,41,10.80
2010,03,20,12,42,10.90
2010,03,20,12,43,10.90
2010,03,20,12,44,10.90
2010,03,20,12,45,10.90
2010,03,20,12,46,10.90
2010,03,20,12,47,10.90
2010,03,20,12,48,10.80
2010,03,20,12,49,10.80
2010,03,20,12,50,10.80
2010,03,20,12,51,10.80
2010,03,20,12,52,10.80
2010,03,20,12,53,10.70
2010,03,20,12,54,10.70
2010,03,20,12,55,10.70
2010,03,20,12,56,10.70
2010,03,20,12,57,10.70
2010,03,20,12,58,10.80
2010,03,20,12,59,10.80
2010,03,20,13,00,10.90
2010,03,20,13,01,10.90
2010,03,20,13,02,10.90
2010,03,20,13,03,10.90
2010,03,20,13,04,10.80
2010,03,20,13,05,10.90
2010,03,20,13,06,10.90
2010,03,20,13,07,10.90
2010,03,20,13,08,10.90
2010,03,20,13,09,10.90
2010,03,20,13,10,11.00
2010,03,20,13,11,11.10
2010,03,20,13,12,11.10
2010,03,20,13,13,11.20
2010,03,20,13,14,11.20
2010,03,20,13,15,11.30
2010,03,20,13,16,11.40
2010,03,20,13,17,11.50
2010,03,20,13,18,11.60
2010,03,20,13,19,11.70
2010,03,20,13,20,11.70
2010,03,20,13,21,11.70
2010,03,20,13,22,11.70
2010,03,20,13,23,11.80
2010,03,20,13,24,11.80
2010,03,20,13,25,11.90
2010,03,20,13,26,11.90
2010,03,20,13,27,11.90
2010,03,20,13,28,11.90
2010,03,20,13,29,11.80
2010,03,20,13,30,11.80
2010,03,20,13,31,11.70
2010,03,20,13,32,11.60
2010,03,20,13,33,11.60
2010,03,20,13,34,11.60
2010,03,20,13,35,11.60
2010,03,20,13,36,11.60
2010,03,20,13,37,11.60
2010,03,20,13,38,11.60
2010,03,20,13,39,11.50
2010,03,20,13,40,11.50
2010,03,20,13,41,11.50
2010,03,20,13,42,11.60
2010,03,20,13,43,11.50
2010,03,20,13,44,11.40
2010,03,20,13,45,11.30
2010,03,20,13,46,11.30
2010,03,20,13,47,11.20
2010,03,20,13,48,11.20
2010,03,20,13,49,11.20
2010,03,20,13,50,11.20
2010,03,20,13,51,11.20
2010,03,20,13,52,11.20
2010,03,20,13,53,11.20
2010,03,20,13,54,11.20
2010,03,20,13,55,11.20
2010,03,20,13,56,11.10
2010,03,20,13,57,11.10
2010,03,20,13,58,11.10
2010,03,20,13,59,11.20
2010,03,20,14,00,11.20
2010,03,20,14,01,11.20
2010,03,20,14,02,11.30
2010,03,20,14,03,11.30
2010,03,20,14,04,11.30
2010,03,20,14,05,11.30
2010,03,20,14,06,11.30
2010,03,20,14,07,11.40
2010,03,20,14,08,11.40
2010,03,20,14,09,11.40
2010,03,20,14,10,11.40
2010,03,20,14,11,11.30
2010,03,20,14,12,11.30
2010,03,20,14,13,11.30
2010,03,20,14,14,11.30
2010,03,20,14,15,11.30
2010,03,20,14,16,11.30
2010,03,20,14,17,11.40
2010,03,20,14,18,11.40
2010,03,20,14,19,11.40
2010,03,20,14,20,11.50
2010,03,20,14,21,11.50
2010,03,20,14,22,11.60
2010,03,20,14,23,11.60
2010,03,20,14,24,11.60
2010,03,20,14,25,11.70
2010,03,20,14,26,11.70
2010,03,20,14,27,11.80
2010,03,20,14,28,11.80
2010,03,20,14,29,11.80
2010,03,20,14,30,11.90
2010,03,20,14,31,11.90
2010,03,20,14,32,12.00
2010,03,20,14,33,12.10
2010,03,20,14,34,12.10
2010,03,20,14,35,12.20
2010,03,20,14,36,12.20
2010,03,20,14,37,12.30
2010,03,20,14,38,12.40
2010,03,20,14,39,12.40
2010,03,20,14,40,12.50
2010,03,20,14,41,12.60
2010,03,20,14,42,12.60
2010,03,20,14,43,12.60
2010,03,20,14,44,12.60
2010,03,20,14,45,12.60
2010,03,20,14,46,12.60
2010,03,20,14,47,12.50
2010,03,20,14,48,12.40
2010,03,20,14,49,12.40
2010,03,20,14,50,12.40
2010,03,20,14,51,12.40
2010,03,20,14,52,12.30
2010,03,20,14,53,12.20
2010,03,20,14,54,12.20
2010,03,20,14,55,12.20
2010,03,20,14,56,12.30
2010,03,20,14,57,12.30
2010,03,20,14,58,12.20
2010,03,20,14,59,12.20
2010,03,20,15,00,12.20
2010,03,20,15,01,12.20
2010,03,20,15,02,12.30
2010,03,20,15,03,12.30
2010,03,20,15,04,12.30
2010,03,20,15,05,12.30
2010,03,20,15,06,12.30
2010,03,20,15,07,12.40
2010,03,20,15,08,12.40
2010,03,20,15,09,12.40
2010,03,20,15,10,12.40
2010,03,20,15,11,12.50
2010,03,20,15,12,12.50
2010,03,20,15,13,12.40
2010,03,20,15,14,12.40
2010,03,20,15,15,12.40
2010,03,20,15,16,12.40
2010,03,20,15,17,12.30
2010,03,20,15,18,12.30
2010,03,20,15,19,12.20
2010,03,20,15,20,12.20
2010,03,20,15,21,12.20
2010,03,20,15,22,12.20
2010,03,20,15,23,12.20
2010,03,20,15,24,12.20
2010,03,20,15,25,12.30
2010,03,20,15,26,12.40
2010,03,20,15,27,12.40
2010,03,20,15,28,12.40
2010,03,20,15,29,12.50
2010,03,20,15,30,12.50
2010,03,20,15,31,12.60
2010,03,20,15,32,12.60
2010,03,20,15,33,12.60
2010,03,20,15,34,12.60
2010,03,20,15,35,12.70
2010,03,20,15,36,12.70
2010,03,20,15,37,12.80
2010,03,20,15,38,12.80
2010,03,20,15,39,12.80
2010,03,20,15,40,12.80
2010,03,20,15,41,12.80
2010,03,20,15,42,12.80
2010,03,20,15,43,12.80
2010,03,20,15,44,12.90
2010,03,20,15,45,12.90
2010,03,20,15,46,13.00
2010,03,20,15,47,13.10
2010,03,20,15,48,13.00
2010,03,20,15,49,13.00
2010,03,20,15,50,12.90
2010,03,20,15,51,12.80
2010,03,20,15,52,12.80
2010,03,20,15,53,12.80
2010,03,20,15,54,12.80
2010,03,20,15,55,12.70
2010,03,20,15,56,12.70
2010,03,20,15,57,12.70
2010,03,20,15,58,12.80
2010,03,20,15,59,12.80
2010,03,20,16,00,12.80
2010,03,20,16,01,12.80
2010,03,20,16,02,12.80
2010,03,20,16,03,12.90
2010,03,20,16,04,12.80
2010,03,20,16,05,12.80
2010,03,20,16,06,12.80
2010,03,20,16,07,12.70
2010,03,20,16,08,12.70
2010,03,20,16,09,12.70
2010,03,20,16,10,12.60
2010,03,20,16,11,12.60
2010,03,20,16,12,12.70
2010,03,20,16,13,12.70
2010,03,20,16,14,12.60
2010,03,20,16,15,12.60
2010,03,20,16,16,12.70
2010,03,20,16,17,12.70
2010,03,20,16,18,12.70
2010,03,20,16,19,12.70
2010,03,20,16,20,12.70
2010,03,20,16,21,12.70
2010,03,20,16,22,12.80
2010,03,20,16,23,12.80
2010,03,20,16,24,12.70
2010,03,20,16,25,12.70
2010,03,20,16,26,12.70
2010,03,20,16,27,12.80
2010,03,20,16,28,12.80
2010,03,20,16,29,12.80
2010,03,20,16,30,12.90
2010,03,20,16,31,12.90
2010,03,20,16,32,12.90
2010,03,20,16,33,12.90
2010,03,20,16,34,13.00
2010,03,20,16,35,13.00
2010,03,20,16,36,13.10
2010,03,20,16,37,13.10
2010,03,20,16,38,13.20
2010,03,20,16,39,13.30
2010,03,20,16,40,13.40
2010,03,20,16,41,13.50
2010,03,20,16,42,13.50
2010,03,20,16,43,13.50
2010,03,20,16,44,13.60
2010,03,20,16,45,13.60
2010,03,20,16,46,13.60
2010,03,20,16,47,13.60
2010,03,20,16,48,13.60
2010,03,20,16,49,13.50
2010,03,20,16,50,13.50
2010,03,20,16,51,13.40
2010,03,20,16,52,13.30
2010,03,20,16,53,13.30
2010,03,20,16,54,13.20
2010,03,20,16,55,13.20
2010,03,20,16,56,13.10
2010,03,20,16,57,13.10
2010,03,20,16,58,13.10
2010,03,20,16,59,13.10
2010,03,20,17,00,13.00
2010,03,20,17,01,13.00
2010,03,20,17,02,12.90
2010,03,20,17,03,12.90
2010,03,20,17,04,12.90
2010,03,20,17,05,12.80
2010,03,20,17,06,12.80
2010,03,20,17,07,12.80
2010,03,20,17,08,12.80
2010,03,20,17,09,12.70
2010,03,20,17,10,12.70
2010,03,20,17,11,12.60
2010,03,20,17,12,12.50
2010,03,20,17,13,12.50
2010,03,20,17,14,12.50
2010,03,20,17,15,12.50
2010,03,20,17,16,12.50
2010,03,20,17,17,12.40
2010,03,20,17,18,12.40
2010,03,20,17,19,12.30
2010,03,20,17,20,12.30
2010,03,20,17,21,12.30
2010,03,20,17,22,12.30
2010,03,20,17,23,12.30
2010,03,20,17,24,12.30
2010,03,20,17,25,12.30
2010,03,20,17,26,12.30
2010,03,20,17,27,12.30
2010,03,20,17,28,12.30
2010,03,20,17,29,12.30
2010,03,20,17,30,12.30
2010,03,20,17,31,12.30
2010,03,20,17,32,12.30
2010,03,20,17,33,12.30
2010,03,20,17,34,12.30
2010,03,20,17,35,12.30
2010,03,20,17,36,12.30
2010,03,20,17,37,12.30
2010,03,20,17,38,12.30
2010,03,20,17,39,12.30
2010,03,20,17,40,12.30
2010,03,20,17,41,12.30
2010,03,20,17,42,12.30
2010,03,20,17,43,12.30
2010,03,20,17,44,12.30
2010,03,20,17,45,12.30
2010,03,20,17,46,12.20
2010,03,20,17,47,12.20
2010,03,20,17,48,12.20
2010,03,20,17,49,12.20
2010,03,20,17,50,12.20